Terminal Aerodrome Forecast
Issued by NWS Memphis, TN

Home | Current Version | Previous Version | Text Only | Print | Product List | Glossary On
Versions: 1 2 3 4 5 6 7 8 9 10 11 12 13 14 15 16
272
FTUS44 KMEG 242321
TAFJBR
TAF
KJBR 242321Z 2500/2524 VRB03KT P6SM VCSH SCT040 BKN120
     FM250400 16007KT P6SM VCTS BKN035CB BKN100
     FM250700 22003KT P6SM BKN100
      TEMPO 2509/2513 4SM BR
     FM251500 21007KT P6SM VCTS BKN040CB BKN150=

USA.gov is the U.S. government's official web portal to all federal, state and local government web resources and services.